| time (UTC) | temp F | wind direction | speed knots | gust knots | rain 1hr in | rain 24hr in | rain mn in | humidity % | barometer mb |
| 20260901014548 | 77 | 207 | 0.0 | 0.0 | 0.00 | 0.00 | 0.00 | 95 | 1016.4 |
| 20260901013055 | 78 | 207 | 0.0 | 0.0 | 0.00 | 0.00 | 0.00 | 95 | 1016.2 |
| 20260901011548 | 78 | 207 | 0.0 | 0.0 | 0.00 | 0.00 | 0.00 | 94 | 1016.0 |
| 20260901004516 | 79 | 207 | 0.0 | 0.9 | 0.00 | 0.00 | 0.00 | 93 | 1015.7 |
| 20260901003021 | 79 | 207 | 0.0 | 0.0 | 0.00 | 0.00 | 0.00 | 92 | 1015.5 |
| 20260901001525 | 80 | 207 | 0.0 | 1.7 | 0.00 | 0.00 | 0.00 | 91 | 1015.3 |
| 20260901000013 | 80 | 206 | 0.0 | 3.5 | 0.00 | 0.00 | 0.00 | 90 | 1015.2 |
| 20260831234512 | 81 | 207 | 2.6 | 4.3 | 0.00 | 0.00 | 0.00 | 89 | 1015.3 |
| 20260831233029 | 83 | 190 | 0.0 | 0.0 | 0.00 | 0.00 | 0.00 | 86 | 1015.3 |
| 20260831231517 | 84 | 183 | 0.0 | 0.0 | 0.00 | 0.00 | 0.00 | 84 | 1015.4 |
| 20260831230010 | 85 | 175 | 0.0 | 1.7 | 0.00 | 0.00 | 0.00 | 81 | 1015.5 |
| 20260831224508 | 86 | 167 | 1.7 | 4.3 | 0.00 | 0.00 | 0.00 | 79 | 1015.5 |
| 20260831223007 | 88 | 85 | 0.0 | 0.9 | 0.00 | 0.00 | 0.00 | 73 | 1015.6 |
| 20260831221505 | 89 | 40 | 0.0 | 5.2 | 0.00 | 0.00 | 0.00 | 70 | 1015.6 |
| 20260831220004 | 90 | 43 | 2.6 | 6.1 | 0.00 | 0.00 | 0.00 | 65 | 1015.7 |
| 20260831214500 | 91 | 43 | 3.5 | 5.2 | 0.00 | 0.00 | 0.00 | 65 | 1015.8 |
| 20260831213106 | 92 | 28 | 1.7 | 6.1 | 0.00 | 0.00 | 0.00 | 61 | 1016.1 |
| 20260831211528 | 92 | 82 | 1.7 | 6.1 | 0.00 | 0.00 | 0.00 | 59 | 1016.2 |
| 20260831210026 | 91 | 76 | 0.9 | 4.3 | 0.00 | 0.00 | 0.00 | 63 | 1016.1 |
| 20260831204523 | 92 | 32 | 2.6 | 7.0 | 0.00 | 0.00 | 0.00 | 62 | 1016.1 |
| 20260831203022 | 92 | 52 | 3.5 | 7.0 | 0.00 | 0.00 | 0.00 | 61 | 1016.2 |
| 20260831201524 | 91 | 49 | 2.6 | 5.2 | 0.00 | 0.00 | 0.00 | 62 | 1016.4 |
| 20260831200017 | 91 | 57 | 0.9 | 5.2 | 0.00 | 0.00 | 0.00 | 63 | 1016.6 |
| 20260831194514 | 91 | 214 | 1.7 | 5.2 | 0.00 | 0.00 | 0.00 | 68 | 1016.7 |
| 20260831193024 | 92 | 173 | 0.0 | 3.5 | 0.00 | 0.00 | 0.00 | 62 | 1016.8 |
| 20260831191511 | 91 | 196 | 0.0 | 4.3 | 0.00 | 0.00 | 0.00 | 63 | 1017.0 |
| 20260831190016 | 91 | 153 | 4.3 | 7.8 | 0.00 | 0.00 | 0.00 | 63 | 1017.3 |
| 20260831184510 | 91 | 72 | 3.5 | 6.1 | 0.00 | 0.00 | 0.00 | 66 | 1017.4 |
| 20260831183005 | 91 | 24 | 1.7 | 6.1 | 0.00 | 0.00 | 0.00 | 70 | 1017.4 |
| 20260831181506 | 89 | 41 | 2.6 | 6.1 | 0.00 | 0.00 | 0.00 | 72 | 1017.8 |
| 20260831181501 | 89 | 43 | 2.6 | 6.1 | 0.00 | 0.00 | 0.00 | 73 | 1017.8 |
| 20260831180112 | 88 | 36 | 2.6 | 7.0 | 0.00 | 0.00 | 0.00 | 72 | 1017.7 |
| 20260831174554 | 87 | 77 | 3.5 | 7.0 | 0.00 | 0.00 | 0.00 | 74 | 1017.8 |
| 20260831173124 | 86 | 32 | 0.0 | 6.1 | 0.00 | 0.00 | 0.00 | 74 | 1018.0 |
| 20260831171523 | 87 | 17 | 0.9 | 7.8 | 0.00 | 0.00 | 0.00 | 75 | 1018.1 |
| 20260831170033 | 86 | 22 | 5.2 | 7.8 | 0.00 | 0.00 | 0.00 | 75 | 1018.1 |
| 20260831164520 | 85 | 67 | 3.5 | 7.8 | 0.00 | 0.00 | 0.00 | 78 | 1018.3 |
| 20260831163011 | 83 | 61 | 3.5 | 7.8 | 0.00 | 0.00 | 0.00 | 80 | 1018.2 |
| 20260831161508 | 82 | 41 | 0.9 | 7.0 | 0.00 | 0.00 | 0.00 | 83 | 1018.4 |
| 20260831160034 | 80 | 307 | 0.0 | 0.0 | 0.00 | 0.00 | 0.00 | 87 | 1018.5 |
| 20260831154533 | 78 | 311 | 0.0 | 0.0 | 0.00 | 0.00 | 0.00 | 90 | 1018.5 |
| 20260831153023 | 76 | 296 | 0.0 | 0.0 | 0.00 | 0.00 | 0.00 | 95 | 1018.5 |
| 20260831151521 | 75 | 213 | 0.0 | 0.0 | 0.00 | 0.00 | 0.00 | 98 | 1018.5 |
| 20260831150022 | 74 | 213 | 0.0 | 0.0 | 0.00 | 0.00 | 0.00 | 99 | 1018.7 |
| 20260831144512 | 74 | 213 | 0.0 | 0.0 | 0.00 | 0.00 | 0.00 | 99 | 1018.6 |
| 20260831143006 | 73 | 212 | 0.0 | 0.0 | 0.00 | 0.00 | 0.00 | 100 | 1018.5 |
| 20260831141501 | 73 | 212 | 0.0 | 0.0 | 0.00 | 0.00 | 0.00 | 100 | 1018.4 |
| 20260831140059 | 73 | 212 | 0.0 | 0.0 | 0.00 | 0.00 | 0.00 | 100 | 1018.3 |
| 20260831134553 | 72 | 212 | 0.0 | 0.0 | 0.00 | 0.00 | 0.00 | 100 | 1018.2 |
| 20260831133048 | 72 | 212 | 0.0 | 0.0 | 0.00 | 0.00 | 0.00 | 100 | 1018.3 |
| 20260831131543 | 71 | 212 | 0.0 | 0.0 | 0.00 | 0.00 | 0.00 | 100 | 1018.4 |
| 20260831130047 | 70 | 212 | 0.0 | 0.0 | 0.00 | 0.00 | 0.00 | 100 | 1018.3 |
| 20260831124541 | 70 | 212 | 0.0 | 0.0 | 0.00 | 0.00 | 0.00 | 100 | 1018.1 |
| 20260831123042 | 69 | 212 | 0.0 | 0.0 | 0.00 | 0.00 | 0.00 | 99 | 1018.1 |
| 20260831121543 | 69 | 212 | 0.0 | 0.0 | 0.00 | 0.00 | 0.00 | 99 | 1018.2 |
| 20260831120037 | 68 | 212 | 0.0 | 0.0 | 0.00 | 0.00 | 0.00 | 99 | 1018.1 |
| 20260831114535 | 68 | 212 | 0.0 | 0.0 | 0.00 | 0.00 | 0.00 | 99 | 1018.0 |
| 20260831113032 | 68 | 212 | 0.0 | 0.0 | 0.00 | 0.00 | 0.00 | 99 | 1017.8 |
| 20260831111529 | 68 | 212 | 0.0 | 0.0 | 0.00 | 0.00 | 0.00 | 99 | 1017.6 |
| 20260831110029 | 68 | 212 | 0.0 | 0.0 | 0.00 | 0.00 | 0.00 | 99 | 1017.5 |
| 20260831104530 | 68 | 212 | 0.0 | 0.0 | 0.00 | 0.00 | 0.00 | 99 | 1017.5 |
| 20260831103056 | 68 | 212 | 0.0 | 0.0 | 0.00 | 0.00 | 0.00 | 99 | 1017.4 |
| 20260831101556 | 68 | 212 | 0.0 | 0.0 | 0.00 | 0.00 | 0.00 | 99 | 1017.3 |
| 20260831100105 | 68 | 212 | 0.0 | 0.0 | 0.00 | 0.00 | 0.00 | 99 | 1017.3 |
| 20260831094552 | 68 | 212 | 0.0 | 0.0 | 0.00 | 0.00 | 0.00 | 99 | 1017.2 |
| 20260831093052 | 68 | 212 | 0.0 | 0.0 | 0.00 | 0.00 | 0.00 | 99 | 1017.2 |
| 20260831091551 | 68 | 211 | 0.0 | 0.0 | 0.00 | 0.00 | 0.00 | 99 | 1017.2 |
| 20260831090021 | 68 | 211 | 0.0 | 0.0 | 0.00 | 0.00 | 0.00 | 99 | 1017.2 |
| 20260831084533 | 68 | 211 | 0.0 | 0.0 | 0.00 | 0.00 | 0.00 | 99 | 1017.1 |
| 20260831083035 | 69 | 211 | 0.0 | 0.0 | 0.00 | 0.00 | 0.00 | 99 | 1017.1 |
| 20260831081517 | 69 | 211 | 0.0 | 0.0 | 0.00 | 0.00 | 0.00 | 99 | 1016.9 |
| 20260831080026 | 69 | 211 | 0.0 | 0.0 | 0.00 | 0.00 | 0.00 | 99 | 1016.8 |
| 20260831074517 | 69 | 211 | 0.0 | 0.0 | 0.00 | 0.00 | 0.00 | 99 | 1016.8 |
| 20260831073018 | 69 | 211 | 0.0 | 0.0 | 0.00 | 0.00 | 0.00 | 99 | 1016.8 |
| 20260831071510 | 69 | 211 | 0.0 | 0.0 | 0.00 | 0.00 | 0.00 | 99 | 1016.8 |
| 20260831070008 | 70 | 211 | 0.0 | 0.0 | 0.00 | 0.00 | 0.00 | 99 | 1016.8 |
| 20260831064509 | 70 | 211 | 0.0 | 0.0 | 0.00 | 0.00 | 0.00 | 99 | 1017.0 |
| 20260831063004 | 70 | 211 | 0.0 | 1.7 | 0.00 | 0.00 | 0.00 | 99 | 1016.9 |
| 20260831061503 | 70 | 211 | 0.0 | 0.0 | 0.00 | 0.00 | 0.00 | 98 | 1017.0 |
| 20260831060002 | 70 | 211 | 0.0 | 0.9 | 0.00 | 0.00 | 0.00 | 99 | 1017.1 |
| 20260831054603 | 70 | 211 | 0.0 | 0.0 | 0.00 | 0.00 | 0.00 | 98 | 1017.1 |
| 20260831053158 | 71 | 210 | 0.0 | 0.0 | 0.00 | 0.00 | 0.00 | 98 | 1017.2 |
| 20260831051554 | 71 | 210 | 0.0 | 0.0 | 0.00 | 0.00 | 0.00 | 99 | 1017.3 |
| 20260831050049 | 71 | 210 | 0.0 | 0.0 | 0.00 | 0.00 | 0.00 | 98 | 1017.2 |
| 20260831044554 | 71 | 210 | 0.0 | 0.0 | 0.00 | 0.00 | 0.00 | 98 | 1017.2 |
| 20260831043048 | 72 | 210 | 0.0 | 0.0 | 0.00 | 0.00 | 0.00 | 98 | 1017.3 |
| 20260831041517 | 72 | 209 | 0.0 | 0.0 | 0.00 | 0.00 | 0.00 | 98 | 1017.4 |
| 20260831040021 | 72 | 209 | 0.0 | 0.0 | 0.00 | 0.00 | 0.00 | 98 | 1017.5 |
| 20260831034519 | 72 | 209 | 0.0 | 0.0 | 0.00 | 0.00 | 0.00 | 98 | 1017.5 |
| 20260831033114 | 73 | 209 | 0.0 | 0.0 | 0.00 | 0.00 | 0.00 | 98 | 1017.5 |
| 20260831031518 | 73 | 209 | 0.0 | 1.7 | 0.00 | 0.00 | 0.00 | 98 | 1017.4 |
| 20260831030013 | 73 | 209 | 0.0 | 0.0 | 0.00 | 0.00 | 0.00 | 98 | 1017.4 |
| 20260831024512 | 73 | 209 | 0.0 | 0.0 | 0.00 | 0.00 | 0.00 | 98 | 1017.4 |
| 20260831023013 | 73 | 209 | 0.0 | 0.0 | 0.00 | 0.00 | 0.00 | 98 | 1017.3 |
| 20260831021509 | 73 | 209 | 0.0 | 0.0 | 0.00 | 0.00 | 0.00 | 98 | 1017.2 |
| 20260831020009 | 73 | 209 | 0.0 | 0.0 | 0.00 | 0.00 | 0.00 | 97 | 1017.2 |